EN

Hourly Weather Abadin

Today, 27 November, Friday

Time Temperature Precipitation Wind Pressure Humidity
00:00 +7°C° 0 mm 0 mps 703 mmHg 86%
01:00 +7°C° 0 mm 1 mps 703 mmHg 87%
02:00 +7°C° 0 mm 1 mps 702 mmHg 88%
03:00 +7°C° 0 mm 1 mps 702 mmHg 87%
04:00 +7°C° 0 mm 1 mps 702 mmHg 87%
05:00 +7°C° 0 mm 1 mps 702 mmHg 87%
06:00 +7°C° 0 mm 1 mps 702 mmHg 85%
07:00 +8°C° 0 mm 1 mps 702 mmHg 83%
08:00 +9°C° 0 mm 1 mps 702 mmHg 81%
09:00 +11°C° 0 mm 1 mps 702 mmHg 73%
10:00 +13°C° 0 mm 1 mps 703 mmHg 65%
11:00 +14°C° 0 mm 0 mps 703 mmHg 58%
12:00 +14°C° 0 mm 0 mps 702 mmHg 59%
13:00 +14°C° 0 mm 0 mps 702 mmHg 59%
14:00 +14°C° 0 mm 0 mps 701 mmHg 60%
15:00 +12°C° 0 mm 0 mps 701 mmHg 69%
16:00 +10°C° 0 mm 0 mps 701 mmHg 79%
17:00 +7°C° 0 mm 0 mps 701 mmHg 88%
18:00 +8°C° 0 mm 1 mps 701 mmHg 88%
19:00 +8°C° 0 mm 1 mps 700 mmHg 88%
20:00 +7°C° 0 mm 1 mps 700 mmHg 88%
21:00 +7°C° 0 mm 1 mps 700 mmHg 89%
22:00 +7°C° 0 mm 1 mps 700 mmHg 89%
23:00 +7°C° 0 mm 1 mps 700 mmHg 89%

Tomorrow, 28 November, Saturday

Time Temperature Precipitation Wind Pressure Humidity
00:00 +6°C° 0 mm 1 mps 699 mmHg 89%
01:00 +6°C° 0 mm 1 mps 699 mmHg 89%
02:00 +6°C° 0 mm 1 mps 699 mmHg 90%
03:00 +6°C° 0 mm 1 mps 698 mmHg 90%
04:00 +6°C° 0 mm 1 mps 698 mmHg 90%
05:00 +6°C° 0 mm 1 mps 698 mmHg 90%
06:00 +6°C° 0 mm 1 mps 698 mmHg 87%
07:00 +7°C° 0 mm 1 mps 698 mmHg 84%
08:00 +8°C° 0 mm 1 mps 698 mmHg 81%
09:00 +10°C° 0 mm 1 mps 699 mmHg 73%
10:00 +12°C° 0 mm 1 mps 699 mmHg 65%
11:00 +14°C° 0 mm 1 mps 699 mmHg 57%
12:00 +14°C° 0 mm 1 mps 699 mmHg 59%
13:00 +14°C° 0 mm 1 mps 699 mmHg 60%
14:00 +14°C° 0 mm 1 mps 698 mmHg 62%
15:00 +12°C° 0 mm 1 mps 698 mmHg 69%
16:00 +10°C° 0 mm 1 mps 699 mmHg 77%
17:00 +8°C° 0 mm 1 mps 699 mmHg 85%
18:00 +8°C° 0 mm 1 mps 699 mmHg 85%
19:00 +8°C° 0 mm 1 mps 700 mmHg 84%
20:00 +8°C° 0 mm 1 mps 700 mmHg 84%
21:00 +7°C° 0 mm 1 mps 700 mmHg 83%
22:00 +7°C° 0 mm 1 mps 701 mmHg 83%
23:00 +7°C° 0 mm 1 mps 701 mmHg 82%

Day after tomorrow, 29 November, Sunday

Time Temperature Precipitation Wind Pressure Humidity
00:00 +7°C° 0 mm 1 mps 701 mmHg 81%
01:00 +7°C° 0 mm 1 mps 701 mmHg 80%
02:00 +7°C° 0 mm 1 mps 702 mmHg 79%
03:00 +7°C° 0 mm 1 mps 702 mmHg 80%
04:00 +7°C° 0 mm 1 mps 702 mmHg 80%
05:00 +5°C° 0 mm 0 mps 702 mmHg 81%
06:00 +6°C° 0 mm 0 mps 703 mmHg 79%
07:00 +8°C° 0 mm 1 mps 703 mmHg 77%
08:00 +8°C° 0 mm 1 mps 704 mmHg 75%
09:00 +9°C° 0 mm 0 mps 704 mmHg 70%
10:00 +11°C° 0 mm 0 mps 705 mmHg 65%
11:00 +13°C° 0 mm 0 mps 705 mmHg 59%
12:00 +13°C° 0 mm 0 mps 705 mmHg 62%
13:00 +12°C° 0 mm 0 mps 705 mmHg 65%
14:00 +12°C° 0 mm 0 mps 705 mmHg 68%
15:00 +11°C° 0 mm 0 mps 705 mmHg 74%
16:00 +9°C° 0 mm 0 mps 706 mmHg 79%
17:00 +8°C° 0 mm 0 mps 706 mmHg 85%
18:00 +8°C° 0 mm 0 mps 706 mmHg 85%
19:00 +7°C° 0 mm 0 mps 706 mmHg 85%
20:00 +7°C° 0 mm 0 mps 707 mmHg 86%
21:00 +7°C° 0 mm 0 mps 707 mmHg 87%
22:00 +7°C° 0 mm 0 mps 707 mmHg 88%
23:00 +7°C° 0 mm 0 mps 707 mmHg 88%

30 November, Monday

Time Temperature Precipitation Wind Pressure Humidity
00:00 +7°C° 0 mm 1 mps 707 mmHg 91%
01:00 +7°C° 0 mm 1 mps 707 mmHg 93%
02:00 +6°C° 0 mm 1 mps 707 mmHg 95%
03:00 +6°C° 0 mm 1 mps 708 mmHg 95%
04:00 +6°C° 0 mm 1 mps 708 mmHg 95%
05:00 +6°C° 0 mm 1 mps 708 mmHg 96%
06:00 +6°C° 0 mm 1 mps 708 mmHg 94%
07:00 +7°C° 0 mm 1 mps 709 mmHg 92%
08:00 +8°C° 0 mm 1 mps 709 mmHg 90%
09:00 +9°C° 0 mm 1 mps 709 mmHg 86%
10:00 +9°C° 0 mm 2 mps 709 mmHg 82%
11:00 +12°C° 0 mm 2 mps 710 mmHg 78%
12:00 +12°C° 0 mm 2 mps 710 mmHg 79%
13:00 +11°C° 0 mm 3 mps 709 mmHg 80%
14:00 +10°C° 0 mm 3 mps 709 mmHg 81%
15:00 +9°C° 0 mm 2 mps 709 mmHg 85%
16:00 +9°C° 0 mm 2 mps 709 mmHg 90%
17:00 +8°C° 0 mm 2 mps 709 mmHg 94%
18:00 +7°C° 0 mm 2 mps 709 mmHg 95%
19:00 +7°C° 0 mm 2 mps 710 mmHg 95%
20:00 +7°C° 0 mm 2 mps 710 mmHg 96%
21:00 +7°C° 0 mm 2 mps 710 mmHg 96%
22:00 +6°C° 0 mm 2 mps 710 mmHg 96%
23:00 +6°C° 0 mm 2 mps 710 mmHg 96%

1 December, Tuesday

Time Temperature Precipitation Wind Pressure Humidity
00:00 +6°C° 0 mm 2 mps 710 mmHg 96%
01:00 +6°C° 0 mm 2 mps 710 mmHg 97%
02:00 +5°C° 0 mm 2 mps 710 mmHg 97%
03:00 +5°C° 0 mm 2 mps 710 mmHg 97%
04:00 +5°C° 0 mm 2 mps 710 mmHg 97%
05:00 +5°C° 0 mm 2 mps 710 mmHg 97%
06:00 +5°C° 0 mm 2 mps 710 mmHg 95%
07:00 +5°C° 0 mm 2 mps 710 mmHg 94%
08:00 +5°C° 0 mm 2 mps 710 mmHg 92%
09:00 +7°C° 0 mm 2 mps 710 mmHg 84%
10:00 +8°C° 0 mm 2 mps 710 mmHg 76%
11:00 +10°C° 0 mm 2 mps 710 mmHg 68%
12:00 +10°C° 0 mm 2 mps 710 mmHg 68%
13:00 +10°C° 0 mm 2 mps 710 mmHg 68%
14:00 +10°C° 0 mm 2 mps 709 mmHg 69%
15:00 +8°C° 0 mm 2 mps 709 mmHg 78%
16:00 +6°C° 0 mm 2 mps 709 mmHg 87%
17:00 +4°C° 0 mm 2 mps 709 mmHg 96%
18:00 +4°C° 0 mm 2 mps 709 mmHg 96%
19:00 +4°C° 0 mm 2 mps 709 mmHg 96%
20:00 +4°C° 0 mm 1 mps 709 mmHg 97%
21:00 +4°C° 0 mm 1 mps 709 mmHg 96%
22:00 +4°C° 0 mm 1 mps 709 mmHg 96%
23:00 +4°C° 0 mm 1 mps 709 mmHg 95%

2 December, Wednesday

Time Temperature Precipitation Wind Pressure Humidity
00:00 +4°C° 0 mm 1 mps 708 mmHg 95%
01:00 +4°C° 0 mm 1 mps 708 mmHg 94%
02:00 +3°C° 0 mm 1 mps 708 mmHg 93%
03:00 +3°C° 0 mm 1 mps 708 mmHg 93%
04:00 +3°C° 0 mm 1 mps 707 mmHg 93%
05:00 +2°C° 0 mm 1 mps 707 mmHg 93%
06:00 +3°C° 0 mm 1 mps 707 mmHg 90%
07:00 +4°C° 0 mm 1 mps 707 mmHg 88%
08:00 +4°C° 0 mm 1 mps 707 mmHg 85%
09:00 +6°C° 0 mm 1 mps 707 mmHg 77%
10:00 +9°C° 0 mm 1 mps 707 mmHg 68%
11:00 +11°C° 0 mm 1 mps 707 mmHg 59%
12:00 +11°C° 0 mm 1 mps 706 mmHg 60%
13:00 +11°C° 0 mm 1 mps 706 mmHg 61%
14:00 +12°C° 0 mm 1 mps 705 mmHg 63%
15:00 +9°C° 0 mm 1 mps 705 mmHg 73%
16:00 +6°C° 0 mm 0 mps 704 mmHg 83%
17:00 +4°C° 0 mm 0 mps 704 mmHg 94%
18:00 +4°C° 0 mm 0 mps 704 mmHg 94%
19:00 +5°C° 0 mm 1 mps 704 mmHg 95%
20:00 +5°C° 0 mm 1 mps 704 mmHg 95%
21:00 +5°C° 0 mm 1 mps 703 mmHg 96%
22:00 +4°C° 0 mm 1 mps 703 mmHg 96%
23:00 +4°C° 0 mm 1 mps 702 mmHg 97%
Show more